TimeEDT,TemperatureF,Dew PointF,Humidity,Sea Level PressureIn,VisibilityMPH,Wind Direction,Wind SpeedMPH,Gust SpeedMPH,PrecipitationIn,Events,Conditions,WindDirDegrees,DateUTC
12:53 AM,70.0,63.0,78,30.17,10.0,East,6.9,-,N/A,,Clear,100,2013-05-28 04:53:00
1:53 AM,66.9,63.0,87,30.15,10.0,East,4.6,-,N/A,,Clear,90,2013-05-28 05:53:00
2:53 AM,68.0,64.0,87,30.13,10.0,East,6.9,-,N/A,,Clear,80,2013-05-28 06:53:00
3:53 AM,66.0,63.0,90,30.12,10.0,NE,3.5,-,N/A,,Clear,50,2013-05-28 07:53:00
4:53 AM,66.0,63.0,90,30.11,10.0,NE,4.6,-,N/A,,Clear,50,2013-05-28 08:53:00
5:53 AM,64.9,63.0,93,30.12,10.0,NE,3.5,-,N/A,,Clear,50,2013-05-28 09:53:00
6:53 AM,66.0,64.0,93,30.13,10.0,ENE,6.9,-,N/A,,Clear,60,2013-05-28 10:53:00
7:53 AM,71.1,66.0,84,30.14,10.0,East,5.8,-,N/A,,Clear,80,2013-05-28 11:53:00
8:53 AM,75.0,66.9,76,30.14,10.0,ESE,8.1,-,N/A,,Clear,110,2013-05-28 12:53:00
9:53 AM,80.1,66.9,64,30.14,-9999.0,ESE,15.0,18.4,N/A,,Clear,110,2013-05-28 13:53:00
10:53 AM,82.9,68.0,60,30.14,-9999.0,North,-9999.0,-,N/A,,Clear,0,2013-05-28 14:53:00
11:53 AM,84.9,68.0,57,30.14,10.0,East,11.5,-,N/A,,Scattered Clouds,100,2013-05-28 15:53:00
12:53 PM,88.0,68.0,51,30.12,10.0,East,10.4,18.4,N/A,,Partly Cloudy,80,2013-05-28 16:53:00
1:53 PM,87.1,66.0,49,30.10,10.0,ENE,11.5,-,N/A,,Scattered Clouds,70,2013-05-28 17:53:00
2:53 PM,91.0,66.9,45,30.08,10.0,East,17.3,24.2,N/A,,Scattered Clouds,80,2013-05-28 18:53:00
3:53 PM,91.0,66.9,45,30.06,10.0,East,11.5,-,N/A,,Partly Cloudy,100,2013-05-28 19:53:00
4:53 PM,89.1,66.0,46,30.05,10.0,East,13.8,21.9,N/A,,Clear,100,2013-05-28 20:53:00
5:53 PM,88.0,68.0,51,30.05,10.0,East,9.2,18.4,N/A,,Mostly Cloudy,100,2013-05-28 21:53:00
6:53 PM,82.0,70.0,67,30.06,7.0,ESE,9.2,25.3,0.00,Rain,Light Rain,110,2013-05-28 22:53:00
7:53 PM,80.1,71.1,74,30.08,10.0,ESE,12.7,18.4,0.00,,Mostly Cloudy,120,2013-05-28 23:53:00
8:53 PM,78.1,70.0,76,30.10,10.0,East,9.2,-,N/A,,Overcast,100,2013-05-29 00:53:00
9:53 PM,77.0,70.0,79,30.11,10.0,ESE,5.8,-,N/A,,Clear,110,2013-05-29 01:53:00
10:53 PM,75.9,70.0,82,30.12,10.0,ESE,10.4,-,N/A,,Clear,110,2013-05-29 02:53:00
11:53 PM,75.0,70.0,84,30.12,10.0,East,8.1,-,N/A,,Clear,100,2013-05-29 03:53:00